Hourly Weather Roundup
Issued by NWS Central Illinois

Home | Current Version | Previous Version | Text Only | Print | Product List | Glossary On
Versions: 1 2 3 4 5 6 7 8 9 10 11 12 13 14 15 16 17 18 19 20 21 22 23 24 25 26 27 28 29 30 31 32 33 34 35 36 37 38 39 40 41 42 43 44 45 46 47 48 49 50
000
NZUS43 KILX 262310
HWRILX

AREA WEATHER ROUNDUP
NATIONAL WEATHER SERVICE, LINCOLN IL
500 PM CST MON JAN 26 2015


CITY           SKY/WX    TMP DP  RH WIND       PRES   REMARKS
BLOOMINGTON    FOG       28  27  93 S13       29.87S VSB 1   WCI  18
CHAMPAIGN      CLOUDY    27  24  89 S10       29.90S FOG     WCI  17
DECATUR        CLOUDY    29  28  96 S8        29.90R FOG     WCI  21
FLORA          CLOUDY    30  28  91 S5        29.96R WCI  25
GALESBURG      CLOUDY    32  30  93 S6        29.85R WCI  26
JACKSONVILLE   CLOUDY    35  31  85 S7        29.88R WCI  29
LACON          CLOUDY    27  25  92 S5        29.87R FOG     WCI  22
LAWRENCEVILLE  LGT SNOW  28  24  85 SW3       29.96R FOG
LITCHFIELD     CLOUDY    31  28  86 S9        29.90S WCI  23
$$


CITY           SKY/WX    TMP DP  RH WIND       PRES   REMARKS
LINCOLN        DRIZZLE   32  30  92 S8        29.89S WCI  25
MACOMB         CLOUDY    34  32  93 SW5       29.87S WCI  30
MATTOON        CLOUDY    27  22  81 S7        29.92R WCI  19
MT CARMEL AP   FLURRIES  32  27  80 CALM      29.96R
OLNEY-NOBLE AP CLOUDY    30  27  86 CALM      29.96R
PARIS          CLOUDY    28  25  89 NE3       29.94R
PEORIA         CLOUDY    30  28  92 S7        29.87R FOG     WCI  23
PONTIAC        CLOUDY    29  27  94 S9        29.88S FOG     WCI  20
RANTOUL        CLOUDY    29  26  88 S8        29.90R WCI  21
ROBINSON       LGT SNOW  28  26  94 SW3       29.96R
SPRINGFIELD    CLOUDY    32  28  85 S9        29.88S WCI  24
TAYLORVILLE    CLOUDY    30  28  93 S8        29.90S FOG     WCI  23
$$

...REGIONAL REPORTS...


CITY           SKY/WX    TMP DP  RH WIND       PRES   REMARKS
CHICAGO O`HARE LGT SNOW  25  21  85 S6        29.87R FOG     WCI  18
KANKAKEE       MIX PCPN  27  24  87 S6        29.90R WCI  20
MOLINE         MOCLDY    31  27  85 SW3       29.82S FOG
MOUNT VERNON   CLOUDY    32  25  74 CALM      29.95R
PITTSFIELD     CLEAR     36  32  87 SE6       29.88R WCI  31
QUINCY         CLEAR     39  33  79 S5        29.85R
ROCKFORD       FRZ DRZL  24  22  91 S8        29.88R FOG     WCI  15
$$


CITY           SKY/WX    TMP DP  RH WIND       PRES   REMARKS
BURLINGTON     CLOUDY    35  33  92 CALM      29.84R FOG
CEDAR RAPIDS   CLOUDY    38  36  92 W6        29.81R WCI  33
DES MOINES     PTCLDY    50  37  61 NW22      29.86R
KIRKSVILLE     CLEAR     50  36  58 NW12      29.87R
OTTUMWA        CLEAR     47  36  65 NW12      29.84R
ST LOUIS       PTCLDY    38  29  70 SE8       29.89S WCI  32
$$


CITY           SKY/WX    TMP DP  RH WIND       PRES   REMARKS
TERRE HAUTE    FLURRIES  28  23  81 W7        29.93R WCI  21
EVANSVILLE     LGT SNOW  30  26  85 SW3       29.95S FOG
INDIANAPOLIS   CLOUDY    25  19  78 CALM      29.90R
LAFAYETTE      CLOUDY    27  20  75 S3        29.91R
MADISON        FRZ DRZL  23  21  92 S10       29.83R VSB 1   WCI  12
MILWAUKEE      FLURRIES  26  19  74 S9        29.87R WCI  17
$$




USA.gov is the U.S. government's official web portal to all federal, state and local government web resources and services.